Weather Roundup
Issued by NWS Corpus Christi, TX

Home | Current Version | Previous Version | Text Only | Print | Product List | Glossary On
Versions: 1 2 3 4 5 6 7 8 9 10 11 12 13 14 15 16 17 18 19 20 21 22 23 24 25 26 27 28 29 30 31 32 33 34 35 36 37 38 39 40 41 42 43 44 45 46 47 48 49 50
000
ASUS44 KCRP 241210
HRRCRP

SOUTH TEXAS REGIONAL WEATHER ROUNDUP
NATIONAL WEATHER SERVICE CORPUS CHRISTI TX
700 AM CDT THU APR 24 2014


TXZ229>244-241300-
...CORPUS CHRISTI AREA OBSERVATIONS...

CITY           SKY/WX    TMP DP  RH WIND       PRES   REMARKS
CORPUS CHRISTI MOCLDY    72  67  84 S9        29.81R
NAS CORPUS CHR MOCLDY    73  69  87 S10       29.81R
ROCKPORT       CLOUDY    72  68  87 S9        29.82R
KINGSVILLE NAS MOCLDY    71  68  90 SE3       29.79R
ALICE          CLOUDY    70  67  90 SE7       29.79R
FALFURRIAS     CLOUDY    71  66  85 CALM      29.78R
$$

...VICTORIA AREA OBSERVATIONS...

CITY           SKY/WX    TMP DP  RH WIND       PRES   REMARKS
VICTORIA       CLEAR     68  66  93 SE8       29.83R
BEEVILLE       FAIR      68  68 100 SE5       29.81R
PLEASANTON     MOCLDY    67  64  91 SE8       29.80R
SAN ANTONIO    CLOUDY    68  64  87 S12       29.80S
$$

...LAREDO AREA OBSERVATIONS...

CITY           SKY/WX    TMP DP  RH WIND       PRES   REMARKS
LAREDO         CLOUDY    73  67  81 SE12      29.79R
COTULLA        CLOUDY    70  63  78 SE16      29.77S
DEL RIO        MOCLDY    68  61  78 E6        29.79R
MCALLEN        MOCLDY    72  69  90 SE14      29.74R
HEBBRONVILLE   CLOUDY    66  65  94 CALM      29.80R
$$

...OTHER TEXAS OBSERVATIONS...

CITY           SKY/WX    TMP DP  RH WIND       PRES   REMARKS
BROWNSVILLE    CLOUDY    73  70  90 S16G22    29.77R
HOUSTON        CLOUDY    70  65  84 S7        29.86R
COL. STATION   PTCLDY    67  64  90 S9        29.83S
AUSTIN         MOCLDY    66  63  90 SE7       29.80S
WACO           PTCLDY    65  62  90 S13       29.79R
FORT WORTH     MOCLDY    67  61  81 S16G24    29.75F
WICHITA FALLS  PTCLDY    66  62  87 S18       29.66R
LUBBOCK        PTCLDY    57  33  40 N21G36    29.89R BLWGDUST
EL PASO        PTCLDY    67  10  11 N15G23    29.97R
$$

...MARINE OBSERVATIONS...

STATION/POSITION TIME  SKY/WX   TEMP    WIND        PRES    VSBY  WAVE   SWELL
                                AIR SEA DIR/SP/G                  HT/PER HT/PER
                 (UTC)          (F)     (DEG/KT/KT) (MB)    (MI)  (FT/S) (FT/S)
PORT ARANSAS     1200            71 73  150/ 10/ 11 1009.9R
BUOY 90 E PORT A NOT AVBL
BUOY 45 SE BAFFI 1200            71 71  160/ 14/ 16 1008.1R         4/ 6
BUOY 200 E PT IS NOT AVBL
BUOY 15 E GALVES 1200            70 69  150/ 12/ 14 1010.6R         2/ 4
$$


USA.gov is the U.S. government's official web portal to all federal, state and local government web resources and services.